Pittsburgh Allegheny Co., PA

4:17 PM EST on January 20, 2018 (GMT -0500)
Allegheny County

Weather History for KAGC - June, 2013

Change the Weather History Date:

Thursday, June 20, 2013

  Actual Average Record
Temperature  
Mean Temperature 68 °F -  
Max Temperature 81 °F 83 °F 93 °F (2012)
Min Temperature 55 °F 61 °F 45 °F (2004)
Cooling Degree Days 2    
Growing Degree Days 18 (Base 50)    
Moisture  
Dew Point 51 °F    
Average Humidity 53    
Maximum Humidity 86    
Minimum Humidity 31    
Precipitation  
Precipitation 0.00 in - - ()
Sea Level Pressure  
Sea Level Pressure 30.20 in    
Wind  
Wind Speed 1 mph (NW)    
Max Wind Speed 6 mph    
Max Gust Speed -    
Visibility 10 miles    
Events      
Averages and records for this station are not official NWS values.
T = Trace of Precipitation, MM = Missing Value Source: NWS Daily Summary

Daily Weather History Graph

Daily Weather History Graph

Search for Another Location

Airport or City:

Trip Planner

Search our weather history database for the weather conditions in past years. The results will help you decide how hot, cold, wet, or windy it might be!

Date:

Astronomy

Jun. 20, 2013 Rise Set
Actual Time 5:49 AM EDT 8:53 PM EDT
Civil Twilight 5:16 AM EDT 9:26 PM EDT
Nautical Twilight 4:34 AM EDT 10:08 PM EDT
Astronomical Twilight 3:44 AM EDT 10:57 PM EDT
Moon 5:53 PM EDT 3:15 AM EDT
Length of Visible Light 16h 09m
Length of Day
15h 03m
Waxing Gibbous, 89% of the Moon is Illuminated
Jun 20
Waxing Gibbous
Jun 23
Full
Jun 30
Last Quarter
Jul 8
New
Jul 15
First Quarter

Hourly Weather History & Observations

Time (EDT) Temp. Dew Point Humidity Pressure Visibility Wind Dir Wind Speed Gust Speed Precip Events Conditions
12:53 AM 64.0 °F 46.0 °F 52% 30.16 in 10.0 mi Calm Calm - N/A   Clear
1:53 AM 62.1 °F 46.9 °F 58% 30.17 in 10.0 mi Calm Calm - N/A   Clear
2:53 AM 59.0 °F 51.1 °F 75% 30.17 in 10.0 mi Calm Calm - N/A   Clear
3:53 AM 57.9 °F 50.0 °F 75% 30.17 in 10.0 mi Calm Calm - N/A   Clear
4:53 AM 57.0 °F 50.0 °F 77% 30.18 in 10.0 mi NNW 3.5 mph - N/A   Clear
5:53 AM 55.0 °F 51.1 °F 86% 30.19 in 10.0 mi North 3.5 mph - N/A   Clear
6:53 AM 57.0 °F 51.1 °F 81% 30.20 in 10.0 mi Calm Calm - N/A   Clear
7:53 AM 61.0 °F 53.1 °F 75% 30.22 in 9.0 mi Calm Calm - N/A   Clear
8:53 AM 66.0 °F 54.0 °F 65% 30.23 in 10.0 mi Calm Calm - N/A   Clear
9:53 AM 71.1 °F 51.1 °F 49% 30.24 in 10.0 mi Calm Calm - N/A   Clear
10:53 AM 73.9 °F 48.0 °F 40% 30.24 in 10.0 mi Variable 3.5 mph - N/A   Clear
11:53 AM 75.9 °F 51.1 °F 42% 30.24 in 10.0 mi Variable 3.5 mph - N/A   Clear
12:53 PM 77.0 °F 50.0 °F 39% 30.22 in 10.0 mi Variable 4.6 mph - N/A   Clear
1:53 PM 78.1 °F 51.1 °F 39% 30.21 in 10.0 mi Calm Calm - N/A   Clear
2:53 PM 79.0 °F 51.1 °F 38% 30.20 in 10.0 mi SSE 5.8 mph - N/A   Clear
3:53 PM 79.0 °F 51.1 °F 38% 30.21 in 10.0 mi WSW 4.6 mph - N/A   Clear
4:53 PM 80.1 °F 46.9 °F 31% 30.21 in 10.0 mi Calm Calm - N/A   Clear
5:53 PM 80.1 °F 52.0 °F 38% 30.21 in 10.0 mi Calm Calm - N/A   Clear
6:53 PM 80.1 °F 51.1 °F 36% 30.20 in 10.0 mi Calm Calm - N/A   Clear
7:53 PM 78.1 °F 55.0 °F 45% 30.20 in 10.0 mi Calm Calm - N/A   Clear
8:53 PM 75.0 °F 51.1 °F 43% 30.19 in 10.0 mi West 4.6 mph - N/A   Clear
9:53 PM 73.9 °F 50.0 °F 43% 30.20 in 10.0 mi WNW 4.6 mph - N/A   Clear
10:53 PM 72.0 °F 51.1 °F 48% 30.21 in 10.0 mi Calm Calm - N/A   Clear
11:53 PM 71.1 °F 52.0 °F 51% 30.22 in 10.0 mi NNW 3.5 mph - N/A   Clear